EW7004 Weather Reports


Display with metric or nautical units.
time (UTC)temp
F
wind
direction
speed
MPH
gust
MPH
rain 1hr
in
rain 24hr
in
rain mn
in
humidity
%
barometer
mb
20260901004403 88 206 11.0 17.0 0.00 0.00 0.00 25 1028.5
20260901003903 88 216 7.0 15.0 0.00 0.00 0.00 26 1028.5
20260901003403 88 205 9.0 16.0 0.00 0.00 0.00 26 1028.5
20260901002903 89 188 10.0 17.0 0.00 0.00 0.00 25 1028.5
20260901002405 89 193 9.0 20.0 0.00 0.00 0.00 26 1028.4
20260901001403 89 203 11.0 18.0 0.00 0.00 0.00 25 1028.3
20260901000903 90 198 9.0 17.0 0.00 0.00 0.00 25 1028.2
20260831235904 90 192 6.0 15.0 0.00 0.00 0.00 26 1028.2
20260831235404 91 192 8.0 15.0 0.00 0.00 0.00 25 1028.2
20260831234904 91 215 11.0 17.0 0.00 0.00 0.00 25 1028.2
20260831234403 91 209 10.0 16.0 0.00 0.00 0.00 24 1028.2
20260831233903 91 224 6.0 13.0 0.00 0.00 0.00 25 1028.1
20260831233404 91 226 13.0 17.0 0.00 0.00 0.00 24 1028.2
20260831232903 91 219 12.0 18.0 0.00 0.00 0.00 26 1028.3
20260831232403 91 206 10.0 17.0 0.00 0.00 0.00 23 1028.3
20260831231904 91 211 11.0 20.0 0.00 0.00 0.00 26 1028.3
20260831230903 92 194 6.0 14.0 0.00 0.00 0.00 25 1028.4
20260831225903 92 209 7.0 16.0 0.00 0.00 0.00 27 1028.4
20260831225403 92 207 10.0 17.0 0.00 0.00 0.00 26 1028.4
20260831224403 92 199 8.0 13.0 0.00 0.00 0.00 27 1028.5
20260831223903 92 186 5.0 12.0 0.00 0.00 0.00 27 1028.5
20260831223403 92 191 11.0 17.0 0.00 0.00 0.00 26 1028.5
20260831222904 92 212 10.0 16.0 0.00 0.00 0.00 26 1028.6
20260831222403 92 234 7.0 15.0 0.00 0.00 0.00 27 1028.6
20260831221903 92 225 12.0 17.0 0.00 0.00 0.00 26 1028.6
20260831221403 92 169 6.0 18.0 0.00 0.00 0.00 27 1028.6
20260831220903 92 195 6.0 15.0 0.00 0.00 0.00 27 1028.8
20260831215904 92 180 9.0 16.0 0.00 0.00 0.00 26 1028.9
20260831215404 92 201 8.0 17.0 0.00 0.00 0.00 26 1028.9
20260831214903 92 193 9.0 15.0 0.00 0.00 0.00 27 1028.9
20260831213904 92 214 9.0 14.0 0.00 0.00 0.00 26 1029.0
20260831213403 92 214 7.0 14.0 0.00 0.00 0.00 28 1029.1
20260831212903 92 207 10.0 17.0 0.00 0.00 0.00 26 1029.2
20260831212403 93 258 7.0 12.0 0.00 0.00 0.00 25 1029.2
20260831211903 93 151 5.0 12.0 0.00 0.00 0.00 26 1029.3
20260831210904 93 193 6.0 14.0 0.00 0.00 0.00 25 1029.4
20260831210403 92 231 2.0 7.0 0.00 0.00 0.00 24 1029.5
20260831205904 92 218 9.0 13.0 0.00 0.00 0.00 24 1029.6
20260831204904 92 165 3.0 15.0 0.00 0.00 0.00 23 1029.7
20260831204403 92 229 9.0 13.0 0.00 0.00 0.00 23 1029.7
20260831203403 91 219 6.0 12.0 0.00 0.00 0.00 23 1029.8
20260831202904 91 229 7.0 14.0 0.00 0.00 0.00 22 1029.8
20260831202403 91 241 6.0 8.0 0.00 0.00 0.00 22 1029.8
20260831201404 92 207 6.0 16.0 0.00 0.00 0.00 21 1029.8
20260831200903 92 223 4.0 12.0 0.00 0.00 0.00 22 1029.9
20260831200404 91 190 3.0 8.0 0.00 0.00 0.00 22 1029.9
20260831195903 91 212 5.0 8.0 0.00 0.00 0.00 22 1029.9
20260831195404 91 187 7.0 15.0 0.00 0.00 0.00 22 1029.9
20260831194904 91 224 3.0 12.0 0.00 0.00 0.00 19 1030.0
20260831194403 91 222 7.0 12.0 0.00 0.00 0.00 20 1030.0
20260831193903 91 206 4.0 8.0 0.00 0.00 0.00 20 1030.0
20260831193404 91 224 6.0 12.0 0.00 0.00 0.00 21 1030.1
20260831192903 90 238 3.0 9.0 0.00 0.00 0.00 22 1030.2
20260831192403 90 204 3.0 6.0 0.00 0.00 0.00 22 1030.2
20260831191903 90 228 5.0 8.0 0.00 0.00 0.00 20 1030.3
20260831191404 90 186 6.0 12.0 0.00 0.00 0.00 23 1030.3
20260831190903 90 252 5.0 8.0 0.00 0.00 0.00 23 1030.3
20260831190403 89 207 4.0 8.0 0.00 0.00 0.00 24 1030.3
20260831185403 88 162 3.0 9.0 0.00 0.00 0.00 26 1030.4
20260831184903 88 191 6.0 8.0 0.00 0.00 0.00 27 1030.4
20260831184404 87 194 5.0 9.0 0.00 0.00 0.00 30 1030.4
20260831183903 87 276 3.0 8.0 0.00 0.00 0.00 30 1030.4
20260831183404 87 219 4.0 9.0 0.00 0.00 0.00 30 1030.5
20260831182903 86 165 2.0 5.0 0.00 0.00 0.00 32 1030.5
20260831181904 85 227 2.0 5.0 0.00 0.00 0.00 36 1030.5
20260831181403 84 194 3.0 6.0 0.00 0.00 0.00 36 1030.6
20260831180904 84 232 0.0 6.0 0.00 0.00 0.00 38 1030.6
20260831180403 84 265 2.0 8.0 0.00 0.00 0.00 40 1030.6
20260831175903 84 261 5.0 7.0 0.00 0.00 0.00 40 1030.7
20260831175403 83 337 2.0 7.0 0.00 0.00 0.00 40 1030.7
20260831174904 83 263 3.0 7.0 0.00 0.00 0.00 41 1030.7
20260831174403 82 148 2.0 5.0 0.00 0.00 0.00 44 1030.7
20260831173903 81 161 2.0 5.0 0.00 0.00 0.00 47 1030.7
20260831173404 81 292 2.0 5.0 0.00 0.00 0.00 46 1030.7
20260831172903 81 310 2.0 5.0 0.00 0.00 0.00 46 1030.7
20260831172404 80 242 2.0 3.0 0.00 0.00 0.00 49 1030.7
20260831171903 80 145 1.0 3.0 0.00 0.00 0.00 50 1030.7
20260831171404 80 242 2.0 3.0 0.00 0.00 0.00 54 1030.7
20260831170903 79 197 1.0 3.0 0.00 0.00 0.00 55 1030.6
20260831170404 79 174 2.0 3.0 0.00 0.00 0.00 56 1030.6
20260831165904 78 229 2.0 3.0 0.00 0.00 0.00 58 1030.5
20260831165404 78 227 2.0 3.0 0.00 0.00 0.00 58 1030.6
20260831164904 77 148 1.0 3.0 0.00 0.00 0.00 59 1030.5
20260831164403 76 216 1.0 3.0 0.00 0.00 0.00 62 1030.5
20260831163903 76 305 1.0 3.0 0.00 0.00 0.00 61 1030.5
20260831163403 75 317 1.0 3.0 0.00 0.00 0.00 62 1030.4
20260831162904 74 221 0.0 3.0 0.00 0.00 0.00 63 1030.5
20260831161904 73 270 0.0 3.0 0.00 0.00 0.00 70 1030.4
20260831161403 72 261 1.0 2.0 0.00 0.00 0.00 72 1030.4
20260831160404 72 265 3.0 6.0 0.00 0.00 0.00 74 1030.4
20260831155903 72 310 1.0 3.0 0.00 0.00 0.00 75 1030.5
20260831155403 72 276 2.0 6.0 0.00 0.00 0.00 76 1030.5
20260831154903 71 308 1.0 2.0 0.00 0.00 0.00 76 1030.5
20260831153903 71 284 2.0 3.0 0.00 0.00 0.00 75 1030.5
20260831153403 71 288 0.0 1.0 0.00 0.00 0.00 75 1030.5
20260831152904 71 303 0.0 3.0 0.00 0.00 0.00 75 1030.5
20260831152403 71 303 1.0 3.0 0.00 0.00 0.00 75 1030.4
20260831151904 71 268 2.0 3.0 0.00 0.00 0.00 75 1030.4
20260831150903 70 315 0.0 0.0 0.00 0.00 0.00 75 1030.3
20260831150404 70 315 0.0 0.0 0.00 0.00 0.00 75 1030.3
20260831145903 70 315 0.0 0.0 0.00 0.00 0.00 75 1030.3
20260831145403 70 148 0.0 0.0 0.00 0.00 0.00 75 1030.3
20260831144903 69 148 0.0 0.0 0.00 0.00 0.00 74 1030.2
20260831143903 69 148 0.0 0.0 0.00 0.00 0.00 74 1030.3
20260831143403 69 148 0.0 0.0 0.00 0.00 0.00 74 1030.2
20260831142903 68 148 0.0 0.0 0.00 0.00 0.00 74 1030.2
20260831142403 68 148 0.0 0.0 0.00 0.00 0.00 74 1030.2
20260831141903 67 148 0.0 0.0 0.00 0.00 0.00 71 1030.2
20260831141403 66 148 0.0 0.0 0.00 0.00 0.00 70 1030.1
20260831140903 66 148 0.0 0.0 0.00 0.00 0.00 70 1030.1
20260831140403 66 148 0.0 0.0 0.00 0.00 0.00 71 1030.1
20260831135903 66 148 0.0 0.0 0.00 0.00 0.00 71 1030.0
20260831135403 65 148 0.0 0.0 0.00 0.00 0.00 71 1030.0
20260831134903 65 148 0.0 0.0 0.00 0.00 0.00 71 1029.9
20260831134403 65 148 0.0 0.0 0.00 0.00 0.00 71 1029.9
20260831133904 65 148 0.0 0.0 0.00 0.00 0.00 71 1029.8
20260831133403 65 148 0.0 0.0 0.00 0.00 0.00 71 1029.8
20260831132403 66 148 0.0 0.0 0.00 0.00 0.00 71 1029.7
20260831131903 66 148 0.0 0.0 0.00 0.00 0.00 71 1029.7
20260831131403 66 148 0.0 0.0 0.00 0.00 0.00 72 1029.7
20260831130904 65 148 0.0 0.0 0.00 0.00 0.00 72 1029.7
20260831130403 65 148 0.0 0.0 0.00 0.00 0.00 72 1029.6
20260831125904 65 148 0.0 0.0 0.00 0.00 0.00 72 1029.6
20260831125403 65 148 0.0 0.0 0.00 0.00 0.00 74 1029.6
20260831124903 66 148 0.0 0.0 0.00 0.00 0.00 75 1029.6
20260831123904 66 148 0.0 0.0 0.00 0.00 0.00 75 1029.4
20260831123404 66 148 0.0 0.0 0.00 0.00 0.00 76 1029.3
20260831122903 67 148 0.0 0.0 0.00 0.00 0.00 79 1029.3
20260831122403 68 148 0.0 0.0 0.00 0.00 0.00 84 1029.3
20260831121903 68 148 0.0 0.0 0.00 0.00 0.00 84 1029.4
20260831121403 68 148 0.0 0.0 0.00 0.00 0.00 83 1029.4
20260831120903 68 148 0.0 0.0 0.00 0.00 0.00 83 1029.4
20260831120403 68 148 0.0 0.0 0.00 0.00 0.00 83 1029.4
20260831115903 68 148 0.0 0.0 0.00 0.00 0.00 82 1029.4
20260831115404 68 148 0.0 0.0 0.00 0.00 0.00 81 1029.3
20260831114903 68 148 0.0 3.0 0.00 0.00 0.00 80 1029.4
20260831114403 68 148 0.0 0.0 0.00 0.00 0.00 81 1029.4
20260831113904 68 148 0.0 2.0 0.00 0.00 0.00 80 1029.3
20260831113404 69 149 1.0 3.0 0.00 0.00 0.00 82 1029.3
20260831112904 69 155 0.0 3.0 0.00 0.00 0.00 82 1029.3
20260831112406 69 155 0.0 2.0 0.00 0.00 0.00 82 1029.3
20260831111903 69 155 0.0 2.0 0.00 0.00 0.00 82 1029.2
20260831111403 69 155 0.0 1.0 0.00 0.00 0.00 81 1029.2
20260831110904 69 155 0.0 0.0 0.00 0.00 0.00 81 1029.2
20260831110404 69 155 0.0 0.0 0.00 0.00 0.00 81 1029.2
20260831105904 69 155 0.0 3.0 0.00 0.00 0.00 81 1029.1
20260831105403 69 156 1.0 5.0 0.00 0.00 0.00 80 1029.1
20260831104403 69 158 1.0 3.0 0.00 0.00 0.00 80 1029.1
20260831103903 69 158 0.0 2.0 0.00 0.00 0.00 80 1029.1
20260831103404 70 200 0.0 0.0 0.00 0.00 0.00 79 1029.1
20260831102904 70 200 0.0 0.0 0.00 0.00 0.00 79 1029.1
20260831102404 70 200 0.0 0.0 0.00 0.00 0.00 79 1029.0
20260831101904 70 200 0.0 0.0 0.00 0.00 0.00 78 1029.0
20260831101404 70 200 0.0 0.0 0.00 0.00 0.00 78 1028.9
20260831100903 70 200 0.0 0.0 0.00 0.00 0.00 78 1028.9
20260831100403 70 200 0.0 0.0 0.00 0.00 0.00 78 1028.9
20260831095903 70 200 0.0 0.0 0.00 0.00 0.00 78 1029.0
20260831094903 71 200 0.0 0.0 0.00 0.00 0.00 77 1029.0
20260831094403 71 200 0.0 0.0 0.00 0.00 0.00 77 1029.0
20260831093903 71 200 0.0 0.0 0.00 0.00 0.00 76 1029.0
20260831093403 71 189 0.0 0.0 0.00 0.00 0.00 76 1029.0
20260831092404 71 186 1.0 3.0 0.00 0.00 0.00 76 1028.8
20260831091403 71 180 0.0 2.0 0.00 0.00 0.00 74 1028.8
20260831090904 71 180 0.0 2.0 0.00 0.00 0.00 74 1028.8
20260831090404 71 180 1.0 3.0 0.00 0.00 0.00 74 1028.8
20260831085903 71 162 1.0 3.0 0.00 0.00 0.00 73 1028.8
20260831085404 71 151 0.0 0.0 0.00 0.00 0.00 73 1028.7
20260831084904 71 143 0.0 0.0 0.00 0.00 0.00 73 1028.8
20260831084403 71 143 0.0 0.0 0.00 0.00 0.00 73 1028.9
20260831083903 71 150 0.0 0.0 0.00 0.00 0.00 73 1028.9
20260831082904 72 150 0.0 0.0 0.00 0.00 0.00 72 1028.9
20260831082404 72 177 0.0 0.0 0.00 0.00 0.00 72 1029.0
20260831081903 72 177 0.0 0.0 0.00 0.00 0.00 72 1029.0
20260831081403 72 177 0.0 0.0 0.00 0.00 0.00 72 1029.0
20260831080903 72 177 0.0 0.0 0.00 0.00 0.00 71 1029.0
20260831080403 72 177 0.0 0.0 0.00 0.00 0.00 71 1029.1
20260831075904 72 177 0.0 0.0 0.00 0.00 0.00 71 1029.1
20260831075404 72 177 0.0 0.0 0.00 0.00 0.00 71 1029.1
20260831074903 72 177 0.0 0.0 0.00 0.00 0.00 70 1029.1
20260831074404 72 177 0.0 0.0 0.00 0.00 0.00 70 1029.0
20260831073404 73 177 1.0 3.0 0.00 0.00 0.00 69 1029.0
20260831072404 73 177 0.0 2.0 0.00 0.00 0.00 68 1028.9
20260831071904 73 177 0.0 5.0 0.00 0.00 0.00 67 1028.9
20260831071404 73 165 0.0 2.0 0.00 0.00 0.00 67 1028.9
20260831070903 73 158 0.0 1.0 0.00 0.00 0.00 66 1029.0
20260831065904 74 158 0.0 0.0 0.00 0.00 0.00 66 1028.8
20260831064904 74 158 1.0 3.0 0.00 0.00 0.00 65 1028.9
20260831064403 74 158 0.0 1.0 0.00 0.00 0.00 65 1028.9
20260831063903 74 158 1.0 2.0 0.00 0.00 0.00 64 1028.8
20260831063403 74 163 0.0 3.0 0.00 0.00 0.00 64 1028.9
20260831062903 74 163 0.0 0.0 0.00 0.00 0.00 63 1028.9
20260831062403 74 163 0.0 2.0 0.00 0.00 0.00 63 1028.9
20260831061904 74 163 0.0 3.0 0.00 0.00 0.00 63 1028.8
20260831060404 74 153 1.0 3.0 0.00 0.00 0.00 61 1028.8
20260831055904 74 153 2.0 5.0 0.00 0.00 0.00 61 1028.7
20260831055404 75 168 1.0 5.0 0.00 0.00 0.00 61 1028.7
20260831054404 75 190 1.0 5.0 0.00 0.00 0.00 61 1028.6
20260831053904 75 180 3.0 5.0 0.00 0.00 0.00 61 1028.7
20260831053404 75 167 0.0 3.0 0.00 0.00 0.00 61 1028.7
20260831052903 75 189 2.0 3.0 0.00 0.00 0.00 61 1028.6
20260831052404 75 162 2.0 3.0 0.00 0.00 0.00 61 1028.6
20260831051903 76 168 0.0 3.0 0.00 0.00 0.00 61 1028.6
20260831051404 76 179 2.0 5.0 0.00 0.00 0.00 61 1028.6
20260831050904 76 182 1.0 6.0 0.00 0.00 0.00 61 1028.6
20260831050403 76 209 5.0 8.0 0.00 0.00 0.00 60 1028.6
20260831045404 77 212 4.0 7.0 0.00 0.00 0.00 58 1028.5
20260831044903 78 215 2.0 6.0 0.00 0.00 0.00 57 1028.5
20260831044404 78 177 3.0 3.0 0.00 0.00 0.00 55 1028.5
20260831043904 78 193 1.0 3.0 0.00 0.00 0.00 54 1028.4
20260831043403 79 193 2.0 3.0 0.00 0.00 0.00 54 1028.4
20260831042903 79 205 3.0 6.0 0.00 0.00 0.00 53 1028.5
20260831042403 79 196 2.0 5.0 0.00 0.00 0.00 52 1028.4
20260831041904 79 194 2.0 5.0 0.00 0.00 0.00 52 1028.3
20260831041404 80 221 3.0 5.0 0.00 0.00 0.00 51 1028.2
20260831040904 80 309 1.0 3.0 0.00 0.00 0.00 50 1028.3
20260831035904 80 247 1.0 3.0 0.00 0.00 0.00 49 1028.2
20260831035403 81 235 3.0 6.0 0.00 0.00 0.00 49 1028.1
20260831034903 81 234 6.0 9.0 0.00 0.00 0.00 48 1028.0
20260831034403 82 221 5.0 7.0 0.00 0.00 0.00 47 1027.9
20260831033903 82 220 5.0 7.0 0.00 0.00 0.00 45 1027.8
20260831033404 82 224 5.0 7.0 0.00 0.00 0.00 41 1027.8
20260831032903 82 211 3.0 8.0 0.00 0.00 0.00 38 1027.7
20260831032403 83 193 3.0 8.0 0.00 0.00 0.00 38 1027.6
20260831031903 83 196 4.0 6.0 0.00 0.00 0.00 37 1027.5
20260831031403 83 206 3.0 6.0 0.00 0.00 0.00 37 1027.5
20260831030904 83 207 3.0 7.0 0.00 0.00 0.00 37 1027.3
20260831030403 83 207 3.0 6.0 0.00 0.00 0.00 37 1027.3
20260831025903 84 187 3.0 7.0 0.00 0.00 0.00 37 1027.3
20260831025403 84 184 3.0 6.0 0.00 0.00 0.00 37 1027.2
20260831024403 84 209 3.0 6.0 0.00 0.00 0.00 36 1027.1
20260831023903 84 197 3.0 6.0 0.00 0.00 0.00 36 1027.0
20260831023405 85 191 2.0 6.0 0.00 0.00 0.00 37 1027.0
20260831022903 85 200 3.0 7.0 0.00 0.00 0.00 39 1026.9
20260831022403 85 202 3.0 7.0 0.00 0.00 0.00 39 1026.9
20260831021903 85 213 5.0 7.0 0.00 0.00 0.00 38 1026.8
20260831021403 86 204 5.0 9.0 0.00 0.00 0.00 37 1026.8
20260831020404 86 209 4.0 12.0 0.00 0.00 0.00 37 1026.5
20260831015903 86 227 6.0 9.0 0.00 0.00 0.00 37 1026.6
20260831015403 87 203 6.0 10.0 0.00 0.00 0.00 36 1026.5
20260831014404 87 207 9.0 13.0 0.00 0.00 0.00 35 1026.4
20260831013903 88 219 7.0 13.0 0.00 0.00 0.00 35 1026.4
20260831013404 88 197 6.0 14.0 0.00 0.00 0.00 35 1026.4
20260831012903 88 218 9.0 15.0 0.00 0.00 0.00 35 1026.4
20260831012403 89 208 7.0 15.0 0.00 0.00 0.00 35 1026.4
20260831011904 89 212 7.0 15.0 0.00 0.00 0.00 35 1026.4
20260831011403 89 210 9.0 16.0 0.00 0.00 0.00 34 1026.4
20260831010903 90 210 8.0 14.0 0.00 0.00 0.00 34 1026.5
20260831010403 90 210 9.0 15.0 0.00 0.00 0.00 33 1026.4
20260831005903 90 209 9.0 17.0 0.00 0.00 0.00 33 1026.4
20260831005404 90 213 9.0 14.0 0.00 0.00 0.00 33 1026.4
20260831004904 91 214 11.0 16.0 0.00 0.00 0.00 32 1026.3